START_TIME,STEP,MOV.,AL01,t_acc.,AL02,t_acc.,E37,t_acc.,H21,t_acc.
1981-08-29 18:00:34.900 ,3,1,0.,24.0,0.,24.0,0.,24.0,0.,24.0
1981-08-29 18:00:58.900 ,2,1,0.,24.0,0.,24.0,0.,24.0,0.,24.0
1981-08-29 18:01:22.900 ,1,1,0.,24.0,0.,24.0,0.,24.0,0.,24.0
1981-08-29 18:01:46.900 ,0,1,0.,24.0,0.,24.0,0.,24.0,0.,24.0
1981-08-29 18:02:10.900 ,0,1,0.,24.0,0.,24.0,1.,24.0,0.,24.0
1981-08-29 18:02:34.900 ,1,1,0.,24.0,0.,24.0,0.,24.0,0.,24.0
1981-08-29 18:02:58.900 ,2,1,0.,24.0,0.,24.0,0.,24.0,0.,24.0
1981-08-29 18:03:22.900 ,3,1,1.,24.0,0.,24.0,0.,24.0,0.,24.0
1981-08-29 18:03:46.900 ,3,0,0.,24.0,0.,24.0,0.,24.0,0.,24.0
1981-08-29 18:04:10.900 ,4,1,0.,24.0,0.,24.0,0.,24.0,0.,24.0
1981-08-29 18:04:34.900 ,4,0,0.,24.0,0.,24.0,0.,24.0,0.,24.0
1981-08-29 18:04:58.900 ,5,1,0.,24.0,0.,24.0,0.,24.0,0.,24.0
1981-08-29 18:05:22.900 ,5,0,0.,24.0,0.,24.0,0.,24.0,0.,24.0
1981-08-29 18:05:46.900 ,6,1,1.,24.0,0.,24.0,1.,24.0,0.,24.0
1981-08-29 18:06:10.900 ,6,0,0.,24.0,0.,24.0,0.,24.0,0.,24.0
1981-08-29 18:06:34.900 ,7,1,6.,24.0,0.,24.0,0.,24.0,0.,24.0
1981-08-29 18:06:58.900 ,7,0,37.,24.0,0.,24.0,0.,24.0,0.,24.0
1981-08-29 18:07:22.900 ,7,1,28.,24.0,0.,24.0,0.,24.0,0.,24.0
1981-08-29 18:07:46.900 ,7,0,23.,24.0,0.,24.0,0.,24.0,0.,24.0
1981-08-29 18:08:10.900 ,6,1,22.,24.0,0.,24.0,0.,24.0,0.,24.0
1981-08-29 18:08:34.900 ,6,0,0.,24.0,0.,24.0,1.,24.0,0.,24.0
1981-08-29 18:08:58.900 ,5,1,0.,24.0,0.,24.0,1.,24.0,0.,24.0
1981-08-29 18:09:22.900 ,5,0,0.,24.0,0.,24.0,0.,24.0,0.,24.0
1981-08-29 18:09:46.900 ,4,1,0.,24.0,0.,24.0,1.,24.0,0.,24.0
1981-08-29 18:10:10.900 ,4,0,0.,24.0,0.,24.0,0.,24.0,0.,24.0
1981-08-29 18:10:34.900 ,3,1,0.,24.0,0.,24.0,0.,24.0,0.,24.0
1981-08-29 18:10:58.900 ,3,0,0.,24.0,0.,24.0,0.,24.0,0.,24.0
1981-08-29 18:11:22.900 ,2,1,0.,24.0,0.,24.0,0.,24.0,0.,24.0
1981-08-29 18:11:46.900 ,2,0,0.,24.0,0.,24.0,0.,24.0,0.,24.0
1981-08-29 18:12:10.900 ,1,1,0.,24.0,0.,24.0,0.,24.0,0.,24.0
1981-08-29 18:12:34.900 ,1,0,0.,24.0,0.,24.0,1.,24.0,0.,24.0
1981-08-29 18:12:58.900 ,0,1,0.,24.0,0.,24.0,0.,24.0,0.,24.0
1981-08-29 18:13:22.900 ,0,0,0.,24.0,0.,24.0,0.,24.0,0.,24.0
1981-08-29 18:13:46.900 ,0,1,0.,24.0,0.,24.0,1.,24.0,0.,24.0
1981-08-29 18:14:10.900 ,0,0,0.,24.0,0.,24.0,1.,24.0,0.,24.0
1981-08-29 18:14:34.900 ,1,1,0.,24.0,0.,24.0,0.,24.0,0.,24.0
1981-08-29 18:14:58.900 ,1,0,0.,24.0,0.,24.0,0.,24.0,0.,24.0
1981-08-29 18:15:22.900 ,2,1,0.,24.0,0.,24.0,0.,24.0,0.,24.0
1981-08-29 18:15:46.900 ,2,0,0.,24.0,0.,24.0,1.,24.0,0.,24.0
1981-08-29 18:16:10.900 ,3,1,0.,24.0,0.,24.0,0.,24.0,0.,24.0
1981-08-29 18:16:34.900 ,4,1,0.,24.0,0.,24.0,0.,24.0,0.,24.0
1981-08-29 18:16:58.900 ,5,1,0.,24.0,0.,24.0,0.,24.0,0.,24.0
1981-08-29 18:17:22.900 ,6,1,0.,24.0,0.,24.0,0.,24.0,0.,24.0
1981-08-29 18:17:46.900 ,7,1,4.,24.0,0.,24.0,0.,24.0,0.,24.0
1981-08-29 18:18:10.900 ,7,1,30.,24.0,0.,24.0,2.,24.0,0.,24.0
1981-08-29 18:18:34.900 ,6,1,25.,24.0,0.,24.0,0.,24.0,0.,24.0
1981-08-29 18:18:58.900 ,5,1,0.,24.0,0.,24.0,0.,24.0,0.,24.0
1981-08-29 18:19:22.900 ,4,1,0.,24.0,0.,24.0,1.,24.0,0.,24.0
1981-08-29 18:19:46.900 ,3,1,0.,24.0,0.,24.0,0.,24.0,0.,24.0
1981-08-29 18:20:10.900 ,2,1,0.,24.0,0.,24.0,0.,24.0,0.,24.0
1981-08-29 18:20:34.900 ,1,1,0.,24.0,0.,24.0,0.,24.0,0.,24.0
1981-08-29 18:20:58.900 ,0,1,0.,24.0,0.,24.0,0.,24.0,0.,24.0
1981-08-29 18:21:22.900 ,0,1,0.,24.0,0.,24.0,1.,24.0,0.,24.0
1981-08-29 18:21:46.900 ,1,1,1.,24.0,0.,24.0,0.,24.0,0.,24.0
1981-08-29 18:22:10.900 ,2,1,0.,24.0,0.,24.0,0.,24.0,0.,24.0
1981-08-29 18:22:34.900 ,3,1,0.,24.0,0.,24.0,0.,24.0,0.,24.0
1981-08-29 18:22:58.900 ,3,0,0.,24.0,0.,24.0,1.,24.0,0.,24.0
1981-08-29 18:23:22.900 ,4,1,0.,24.0,0.,24.0,0.,24.0,0.,24.0
1981-08-29 18:23:46.900 ,4,0,0.,24.0,0.,24.0,0.,24.0,0.,24.0
1981-08-29 18:24:10.900 ,5,1,0.,24.0,0.,24.0,1.,24.0,0.,24.0
1981-08-29 18:24:34.900 ,5,0,0.,24.0,0.,24.0,0.,24.0,0.,24.0
1981-08-29 18:24:58.900 ,6,1,0.,24.0,0.,24.0,0.,24.0,0.,24.0
1981-08-29 18:25:22.900 ,6,0,0.,24.0,0.,24.0,0.,24.0,0.,24.0
1981-08-29 18:25:46.900 ,7,1,1.,24.0,0.,24.0,0.,24.0,0.,24.0
1981-08-29 18:26:10.900 ,7,0,36.,24.0,0.,24.0,0.,24.0,0.,24.0
1981-08-29 18:26:34.900 ,7,1,38.,24.0,0.,24.0,0.,24.0,0.,24.0
1981-08-29 18:26:58.900 ,7,0,28.,24.0,0.,24.0,0.,24.0,0.,24.0
1981-08-29 18:27:22.900 ,6,1,18.,24.0,0.,24.0,0.,24.0,0.,24.0
1981-08-29 18:27:46.900 ,6,0,0.,24.0,0.,24.0,1.,24.0,0.,24.0
1981-08-29 18:28:10.900 ,5,1,0.,24.0,0.,24.0,0.,24.0,0.,24.0
1981-08-29 18:28:34.900 ,5,0,0.,24.0,0.,24.0,0.,24.0,0.,24.0
1981-08-29 18:28:58.900 ,4,1,0.,24.0,0.,24.0,0.,24.0,0.,24.0
1981-08-29 18:29:22.900 ,4,0,0.,24.0,0.,24.0,0.,24.0,0.,24.0
1981-08-29 18:29:46.900 ,3,1,0.,24.0,0.,24.0,0.,24.0,0.,24.0
1981-08-29 18:30:10.900 ,3,0,0.,24.0,0.,24.0,0.,24.0,0.,24.0
1981-08-29 18:30:34.900 ,2,1,0.,24.0,0.,24.0,1.,24.0,0.,24.0
1981-08-29 18:30:58.900 ,2,0,0.,24.0,0.,24.0,0.,24.0,0.,24.0
1981-08-29 18:31:22.900 ,1,1,0.,24.0,0.,24.0,1.,24.0,0.,24.0
1981-08-29 18:31:46.900 ,1,0,0.,24.0,0.,24.0,0.,24.0,0.,24.0
1981-08-29 18:32:10.900 ,0,1,0.,24.0,0.,24.0,0.,24.0,0.,24.0
1981-08-29 18:32:34.900 ,0,0,0.,24.0,0.,24.0,0.,24.0,0.,24.0
1981-08-29 18:32:58.900 ,0,1,0.,24.0,0.,24.0,0.,24.0,0.,24.0
1981-08-29 18:33:22.900 ,0,0,0.,24.0,0.,24.0,0.,24.0,0.,24.0
1981-08-29 18:33:46.900 ,1,1,0.,24.0,0.,24.0,1.,24.0,0.,24.0
1981-08-29 18:34:10.900 ,1,0,0.,24.0,0.,24.0,0.,24.0,0.,24.0
1981-08-29 18:34:34.900 ,2,1,0.,24.0,0.,24.0,0.,24.0,0.,24.0
1981-08-29 18:34:58.900 ,2,0,0.,24.0,0.,24.0,0.,24.0,0.,24.0
1981-08-29 18:35:22.900 ,3,1,0.,24.0,0.,24.0,0.,24.0,0.,24.0
1981-08-29 18:35:46.900 ,4,1,0.,24.0,0.,24.0,0.,24.0,0.,24.0
1981-08-29 18:36:10.900 ,5,1,0.,24.0,0.,24.0,0.,24.0,0.,24.0
1981-08-29 18:36:34.900 ,6,1,0.,24.0,0.,24.0,0.,24.0,0.,24.0
1981-08-29 18:36:58.900 ,7,1,5.,24.0,1.,24.0,0.,24.0,0.,24.0
1981-08-29 18:37:22.900 ,7,1,26.,24.0,0.,24.0,0.,24.0,0.,24.0
1981-08-29 18:37:46.900 ,6,1,16.,24.0,0.,24.0,1.,24.0,0.,24.0
1981-08-29 18:38:10.900 ,5,1,0.,24.0,0.,24.0,0.,24.0,0.,24.0
1981-08-29 18:38:34.900 ,4,1,0.,24.0,0.,24.0,0.,24.0,0.,24.0
1981-08-29 18:38:58.900 ,3,1,0.,24.0,0.,24.0,0.,24.0,0.,24.0
1981-08-29 18:39:22.900 ,2,1,0.,24.0,0.,24.0,0.,24.0,0.,24.0
1981-08-29 18:39:46.900 ,1,1,0.,24.0,0.,24.0,0.,24.0,0.,24.0
1981-08-29 18:40:10.900 ,0,1,0.,24.0,0.,24.0,0.,24.0,0.,24.0
1981-08-29 18:40:34.900 ,0,1,0.,24.0,0.,24.0,0.,24.0,0.,24.0
1981-08-29 18:40:58.900 ,1,1,0.,24.0,0.,24.0,0.,24.0,0.,24.0
1981-08-29 18:41:22.900 ,2,1,0.,24.0,0.,24.0,0.,24.0,0.,24.0
1981-08-29 18:41:46.900 ,3,1,0.,24.0,0.,24.0,1.,24.0,0.,24.0
1981-08-29 18:42:10.900 ,3,0,0.,24.0,0.,24.0,0.,24.0,0.,24.0
1981-08-29 18:42:34.900 ,4,1,1.,24.0,0.,24.0,1.,24.0,0.,24.0
1981-08-29 18:42:58.900 ,4,0,0.,24.0,0.,24.0,1.,24.0,0.,24.0
1981-08-29 18:43:22.900 ,5,1,0.,24.0,0.,24.0,0.,24.0,0.,24.0
1981-08-29 18:43:46.900 ,0,0,0.,24.0,0.,24.0,0.,24.0,0.,24.0
1981-08-29 18:44:16.300 ,0,0,0.,24.0,0.,24.0,0.,24.0,0.,24.0
1981-08-29 18:44:34.900 ,0,0,0.,24.0,0.,24.0,1.,24.0,0.,24.0
1981-08-29 18:44:58.900 ,7,1,8.,24.0,0.,24.0,1.,24.0,0.,24.0
1981-08-29 18:45:22.900 ,7,0,37.,24.0,0.,24.0,0.,24.0,0.,24.0
1981-08-29 18:45:46.900 ,7,1,31.,24.0,0.,24.0,0.,24.0,0.,24.0
1981-08-29 18:46:10.900 ,7,0,33.,24.0,0.,24.0,0.,24.0,0.,24.0
1981-08-29 18:46:34.900 ,6,1,15.,24.0,0.,24.0,0.,24.0,0.,24.0
1981-08-29 18:46:58.900 ,6,0,0.,24.0,0.,24.0,0.,24.0,0.,24.0
1981-08-29 18:47:22.900 ,5,1,0.,24.0,0.,24.0,1.,24.0,0.,24.0
1981-08-29 18:47:46.900 ,5,0,0.,24.0,0.,24.0,1.,24.0,0.,24.0
1981-08-29 18:48:10.900 ,4,1,0.,24.0,0.,24.0,1.,24.0,0.,24.0
1981-08-29 18:48:34.900 ,4,0,0.,24.0,0.,24.0,0.,24.0,0.,24.0
1981-08-29 18:48:58.900 ,3,1,0.,24.0,0.,24.0,0.,24.0,0.,24.0
1981-08-29 18:49:22.900 ,3,0,0.,24.0,0.,24.0,0.,24.0,0.,24.0
1981-08-29 18:49:46.900 ,2,1,0.,24.0,0.,24.0,0.,24.0,0.,24.0
1981-08-29 18:50:10.900 ,2,0,0.,24.0,0.,24.0,0.,24.0,0.,24.0
1981-08-29 18:50:34.900 ,1,1,0.,24.0,0.,24.0,1.,24.0,0.,24.0
1981-08-29 18:50:58.900 ,1,0,0.,24.0,0.,24.0,1.,24.0,0.,24.0
1981-08-29 18:51:22.900 ,0,1,0.,24.0,0.,24.0,1.,24.0,0.,24.0
1981-08-29 18:51:46.900 ,0,0,0.,24.0,0.,24.0,0.,24.0,0.,24.0
1981-08-29 18:52:10.900 ,0,1,0.,24.0,0.,24.0,0.,24.0,0.,24.0
1981-08-29 18:52:34.900 ,0,0,0.,24.0,0.,24.0,0.,24.0,0.,24.0
1981-08-29 18:52:58.900 ,1,1,0.,24.0,0.,24.0,0.,24.0,0.,24.0
1981-08-29 18:53:22.900 ,1,0,0.,24.0,0.,24.0,0.,24.0,0.,24.0
1981-08-29 18:53:46.900 ,2,1,0.,24.0,0.,24.0,0.,24.0,0.,24.0
1981-08-29 18:54:10.900 ,2,0,0.,24.0,0.,24.0,1.,24.0,0.,24.0
1981-08-29 18:54:34.900 ,3,1,0.,24.0,0.,24.0,0.,24.0,0.,24.0
1981-08-29 18:54:58.900 ,4,1,0.,24.0,0.,24.0,0.,24.0,0.,24.0
1981-08-29 18:55:22.900 ,5,1,0.,24.0,0.,24.0,0.,24.0,0.,24.0
1981-08-29 18:55:46.900 ,6,1,0.,24.0,0.,24.0,0.,24.0,0.,24.0
1981-08-29 18:56:10.900 ,7,1,9.,24.0,0.,24.0,1.,24.0,0.,24.0
1981-08-29 18:56:34.900 ,7,1,34.,24.0,0.,24.0,2.,24.0,0.,24.0
1981-08-29 18:56:58.900 ,6,1,23.,24.0,0.,24.0,0.,24.0,0.,24.0
1981-08-29 18:57:22.900 ,5,1,0.,24.0,0.,24.0,0.,24.0,0.,24.0
1981-08-29 18:57:46.900 ,4,1,0.,24.0,0.,24.0,0.,24.0,0.,24.0
1981-08-29 18:58:10.900 ,3,1,0.,24.0,0.,24.0,0.,24.0,0.,24.0
1981-08-29 18:58:34.900 ,2,1,0.,24.0,0.,24.0,0.,24.0,0.,24.0
1981-08-29 18:58:58.900 ,1,1,0.,24.0,0.,24.0,0.,24.0,0.,24.0
1981-08-29 18:59:22.900 ,0,1,0.,24.0,0.,24.0,0.,24.0,0.,24.0
1981-08-29 18:59:46.900 ,0,1,0.,24.0,0.,24.0,0.,24.0,0.,24.0
1981-08-29 19:00:10.900 ,1,1,0.,24.0,0.,24.0,0.,24.0,0.,24.0
1981-08-29 19:00:34.900 ,2,1,0.,24.0,0.,24.0,0.,24.0,0.,24.0
1981-08-29 19:00:58.900 ,3,1,0.,24.0,0.,24.0,0.,24.0,0.,24.0
1981-08-29 19:01:22.900 ,3,0,0.,24.0,0.,24.0,0.,24.0,0.,24.0
1981-08-29 19:01:46.900 ,4,1,0.,24.0,0.,24.0,1.,24.0,0.,24.0
1981-08-29 19:02:10.900 ,4,0,0.,24.0,0.,24.0,0.,24.0,0.,24.0
1981-08-29 19:02:34.900 ,5,1,0.,24.0,0.,24.0,0.,24.0,0.,24.0
1981-08-29 19:02:58.900 ,5,0,0.,24.0,0.,24.0,0.,24.0,0.,24.0
1981-08-29 19:03:22.900 ,6,1,0.,24.0,0.,24.0,0.,24.0,0.,24.0
1981-08-29 19:03:46.900 ,6,0,0.,24.0,0.,24.0,0.,24.0,0.,24.0
1981-08-29 19:04:10.900 ,7,1,10.,24.0,0.,24.0,1.,24.0,0.,24.0
1981-08-29 19:04:34.900 ,7,0,30.,24.0,0.,24.0,0.,24.0,0.,24.0
1981-08-29 19:04:58.900 ,7,1,30.,24.0,0.,24.0,0.,24.0,0.,24.0
1981-08-29 19:05:22.900 ,7,0,30.,24.0,0.,24.0,0.,24.0,0.,24.0
1981-08-29 19:05:46.900 ,6,1,27.,24.0,0.,24.0,1.,24.0,0.,24.0
1981-08-29 19:06:10.900 ,6,0,0.,24.0,0.,24.0,0.,24.0,0.,24.0
1981-08-29 19:06:34.900 ,5,1,0.,24.0,0.,24.0,0.,24.0,0.,24.0
1981-08-29 19:06:58.900 ,5,0,0.,24.0,0.,24.0,1.,24.0,0.,24.0
1981-08-29 19:07:22.900 ,4,1,0.,24.0,0.,24.0,0.,24.0,0.,24.0
1981-08-29 19:07:46.900 ,4,0,0.,24.0,0.,24.0,0.,24.0,0.,24.0
1981-08-29 19:08:10.900 ,3,1,0.,24.0,1.,24.0,0.,24.0,0.,24.0
1981-08-29 19:08:34.900 ,3,0,1.,24.0,0.,24.0,0.,24.0,0.,24.0
1981-08-29 19:08:58.900 ,2,1,0.,24.0,0.,24.0,0.,24.0,0.,24.0
1981-08-29 19:09:22.900 ,2,0,0.,24.0,0.,24.0,0.,24.0,0.,24.0
1981-08-29 19:09:46.900 ,1,1,0.,24.0,0.,24.0,0.,24.0,0.,24.0
1981-08-29 19:10:10.900 ,1,0,0.,24.0,0.,24.0,1.,24.0,0.,24.0
1981-08-29 19:10:34.900 ,0,1,0.,24.0,0.,24.0,1.,24.0,0.,24.0
1981-08-29 19:10:58.900 ,0,0,0.,24.0,0.,24.0,1.,24.0,0.,24.0
1981-08-29 19:11:22.900 ,0,1,0.,24.0,0.,24.0,0.,24.0,0.,24.0
1981-08-29 19:11:46.900 ,0,0,0.,24.0,0.,24.0,0.,24.0,0.,24.0
1981-08-29 19:12:10.900 ,1,1,0.,24.0,0.,24.0,1.,24.0,0.,24.0
1981-08-29 19:12:34.900 ,1,0,0.,24.0,0.,24.0,0.,24.0,0.,24.0
1981-08-29 19:12:58.900 ,2,1,0.,24.0,0.,24.0,0.,24.0,0.,24.0
1981-08-29 19:13:22.900 ,2,0,0.,24.0,0.,24.0,1.,24.0,0.,24.0
1981-08-29 19:13:46.900 ,3,1,0.,24.0,0.,24.0,0.,24.0,0.,24.0
1981-08-29 19:14:10.900 ,4,1,0.,24.0,0.,24.0,0.,24.0,0.,24.0
1981-08-29 19:14:34.900 ,5,1,0.,24.0,0.,24.0,0.,24.0,0.,24.0
1981-08-29 19:14:58.900 ,6,1,0.,24.0,0.,24.0,0.,24.0,0.,24.0
1981-08-29 19:15:22.900 ,7,1,11.,24.0,0.,24.0,1.,24.0,0.,24.0
1981-08-29 19:15:46.900 ,7,1,42.,24.0,0.,24.0,0.,24.0,0.,24.0
1981-08-29 19:16:10.900 ,6,1,31.,24.0,0.,24.0,1.,24.0,0.,24.0
1981-08-29 19:16:34.900 ,5,1,1.,24.0,0.,24.0,0.,24.0,0.,24.0
1981-08-29 19:16:58.900 ,4,1,0.,24.0,0.,24.0,0.,24.0,0.,24.0
1981-08-29 19:17:22.900 ,3,1,0.,24.0,0.,24.0,0.,24.0,0.,24.0
1981-08-29 19:17:46.900 ,2,1,0.,24.0,0.,24.0,0.,24.0,0.,24.0
1981-08-29 19:18:10.900 ,1,1,0.,24.0,0.,24.0,2.,24.0,0.,24.0
1981-08-29 19:18:34.900 ,0,1,0.,24.0,0.,24.0,0.,24.0,0.,24.0
1981-08-29 19:18:58.900 ,0,1,0.,24.0,0.,24.0,0.,24.0,0.,24.0
1981-08-29 19:19:22.900 ,1,1,0.,24.0,0.,24.0,0.,24.0,0.,24.0
1981-08-29 19:19:46.900 ,2,1,0.,24.0,0.,24.0,0.,24.0,0.,24.0
1981-08-29 19:20:10.900 ,3,1,0.,24.0,0.,24.0,0.,24.0,0.,24.0
1981-08-29 19:20:34.900 ,3,0,0.,24.0,0.,24.0,0.,24.0,0.,24.0
1981-08-29 19:20:58.900 ,4,1,1.,24.0,0.,24.0,1.,24.0,0.,24.0
1981-08-29 19:21:22.900 ,4,0,0.,24.0,0.,24.0,0.,24.0,0.,24.0
1981-08-29 19:21:46.900 ,5,1,0.,24.0,0.,24.0,0.,24.0,0.,24.0
1981-08-29 19:22:10.900 ,5,0,0.,24.0,0.,24.0,0.,24.0,0.,24.0
1981-08-29 19:22:34.900 ,6,1,0.,24.0,0.,24.0,0.,24.0,0.,24.0
1981-08-29 19:22:58.900 ,6,0,0.,24.0,0.,24.0,0.,24.0,0.,24.0
1981-08-29 19:23:22.900 ,7,1,10.,24.0,1.,24.0,1.,24.0,0.,24.0
1981-08-29 19:23:46.900 ,7,0,21.,24.0,0.,24.0,0.,24.0,0.,24.0
1981-08-29 19:24:10.900 ,7,1,25.,24.0,0.,24.0,0.,24.0,0.,24.0
1981-08-29 19:24:34.900 ,7,0,33.,24.0,0.,24.0,0.,24.0,0.,24.0
1981-08-29 19:24:58.900 ,6,1,22.,24.0,0.,24.0,0.,24.0,0.,24.0
1981-08-29 19:25:22.900 ,6,0,0.,24.0,0.,24.0,0.,24.0,0.,24.0
1981-08-29 19:25:46.900 ,5,1,0.,24.0,0.,24.0,0.,24.0,0.,24.0
1981-08-29 19:26:10.900 ,5,0,0.,24.0,0.,24.0,0.,24.0,0.,24.0
1981-08-29 19:26:34.900 ,4,1,0.,24.0,0.,24.0,1.,24.0,0.,24.0
1981-08-29 19:26:58.900 ,4,0,0.,24.0,0.,24.0,0.,24.0,0.,24.0
1981-08-29 19:27:22.900 ,3,1,0.,24.0,0.,24.0,0.,24.0,0.,24.0
1981-08-29 19:27:46.900 ,3,0,0.,24.0,0.,24.0,0.,24.0,0.,24.0
1981-08-29 19:28:10.900 ,2,1,0.,24.0,0.,24.0,0.,24.0,0.,24.0
1981-08-29 19:28:34.900 ,2,0,0.,24.0,0.,24.0,0.,24.0,0.,24.0
1981-08-29 19:28:58.900 ,1,1,0.,24.0,0.,24.0,2.,24.0,0.,24.0
1981-08-29 19:29:22.900 ,1,0,0.,24.0,0.,24.0,0.,24.0,0.,24.0
1981-08-29 19:29:46.900 ,0,1,0.,24.0,0.,24.0,1.,24.0,0.,24.0
1981-08-29 19:30:10.900 ,0,0,0.,24.0,0.,24.0,0.,24.0,0.,24.0
1981-08-29 19:30:34.900 ,0,1,0.,24.0,0.,24.0,0.,24.0,0.,24.0
1981-08-29 19:30:58.900 ,0,0,0.,24.0,0.,24.0,0.,24.0,0.,24.0
1981-08-29 19:31:22.900 ,1,1,0.,24.0,0.,24.0,0.,24.0,0.,24.0
1981-08-29 19:31:46.900 ,1,0,0.,24.0,0.,24.0,0.,24.0,0.,24.0
1981-08-29 19:32:10.900 ,2,1,0.,24.0,0.,24.0,0.,24.0,0.,24.0
1981-08-29 19:32:34.900 ,2,0,0.,24.0,0.,24.0,1.,24.0,0.,24.0
1981-08-29 19:32:58.900 ,3,1,0.,24.0,0.,24.0,0.,24.0,0.,24.0
1981-08-29 19:33:22.900 ,4,1,0.,24.0,0.,24.0,1.,24.0,0.,24.0
1981-08-29 19:33:46.900 ,5,1,0.,24.0,0.,24.0,0.,24.0,0.,24.0
1981-08-29 19:34:10.900 ,6,1,0.,24.0,0.,24.0,0.,24.0,0.,24.0
1981-08-29 19:34:34.900 ,7,1,16.,24.0,0.,24.0,1.,24.0,0.,24.0
1981-08-29 19:34:58.900 ,7,1,45.,24.0,0.,24.0,0.,24.0,0.,24.0
1981-08-29 19:35:22.900 ,6,1,23.,24.0,0.,24.0,0.,24.0,0.,24.0
1981-08-29 19:35:46.900 ,5,1,0.,24.0,0.,24.0,0.,24.0,0.,24.0
1981-08-29 19:36:10.900 ,4,1,0.,24.0,0.,24.0,0.,24.0,0.,24.0
1981-08-29 19:36:34.900 ,3,1,0.,24.0,0.,24.0,0.,24.0,0.,24.0
1981-08-29 19:36:58.900 ,2,1,0.,24.0,0.,24.0,0.,24.0,0.,24.0
1981-08-29 19:37:22.900 ,1,1,1.,24.0,0.,24.0,0.,24.0,0.,24.0
1981-08-29 19:37:46.900 ,0,1,0.,24.0,0.,24.0,0.,24.0,0.,24.0
1981-08-29 19:38:10.900 ,0,1,0.,24.0,0.,24.0,0.,24.0,0.,24.0
1981-08-29 19:38:34.900 ,1,1,0.,24.0,0.,24.0,0.,24.0,0.,24.0
1981-08-29 19:38:58.900 ,2,1,0.,24.0,0.,24.0,0.,24.0,0.,24.0
1981-08-29 19:39:22.900 ,3,1,0.,24.0,0.,24.0,1.,24.0,0.,24.0
1981-08-29 19:39:46.900 ,3,0,0.,24.0,0.,24.0,1.,24.0,0.,24.0
1981-08-29 19:40:10.890 ,4,1,0.,24.0,0.,24.0,0.,24.0,0.,24.0
1981-08-29 19:40:34.890 ,4,0,0.,24.0,0.,24.0,0.,24.0,0.,24.0
1981-08-29 19:40:58.890 ,5,1,0.,24.0,0.,24.0,0.,24.0,0.,24.0
1981-08-29 19:41:22.890 ,5,0,0.,24.0,0.,24.0,0.,24.0,0.,24.0
1981-08-29 19:41:46.890 ,6,1,0.,24.0,0.,24.0,0.,24.0,0.,24.0
1981-08-29 19:42:10.890 ,6,0,0.,24.0,0.,24.0,0.,24.0,0.,24.0
1981-08-29 19:42:34.890 ,7,1,5.,24.0,0.,24.0,0.,24.0,0.,24.0
1981-08-29 19:42:58.890 ,7,0,30.,24.0,0.,24.0,0.,24.0,0.,24.0
1981-08-29 19:43:22.890 ,7,1,34.,24.0,0.,24.0,0.,24.0,0.,24.0
1981-08-29 19:43:46.890 ,7,0,31.,24.0,0.,24.0,0.,24.0,0.,24.0
1981-08-29 19:44:10.890 ,6,1,19.,24.0,0.,24.0,0.,24.0,0.,24.0
1981-08-29 19:44:34.890 ,6,0,0.,24.0,0.,24.0,1.,24.0,0.,24.0
1981-08-29 19:44:58.890 ,5,1,0.,24.0,0.,24.0,0.,24.0,0.,24.0
1981-08-29 19:45:22.890 ,5,0,1.,24.0,0.,24.0,0.,24.0,0.,24.0
1981-08-29 19:45:46.890 ,4,1,1.,24.0,0.,24.0,0.,24.0,0.,24.0
1981-08-29 19:46:10.890 ,4,0,0.,24.0,0.,24.0,0.,24.0,0.,24.0
1981-08-29 19:46:34.890 ,3,1,0.,24.0,0.,24.0,0.,24.0,0.,24.0
1981-08-29 19:46:58.890 ,3,0,0.,24.0,0.,24.0,1.,24.0,0.,24.0
1981-08-29 19:47:22.890 ,2,1,0.,24.0,0.,24.0,0.,24.0,0.,24.0
1981-08-29 19:47:46.890 ,2,0,0.,24.0,0.,24.0,0.,24.0,0.,24.0
1981-08-29 19:48:10.890 ,1,1,0.,24.0,0.,24.0,0.,24.0,0.,24.0
1981-08-29 19:48:34.890 ,1,0,0.,24.0,0.,24.0,0.,24.0,0.,24.0
1981-08-29 19:48:58.890 ,0,1,0.,24.0,0.,24.0,0.,24.0,0.,24.0
1981-08-29 19:49:22.890 ,0,0,0.,24.0,0.,24.0,0.,24.0,0.,24.0
1981-08-29 19:49:46.890 ,0,1,0.,24.0,0.,24.0,2.,24.0,0.,24.0
1981-08-29 19:50:10.890 ,0,0,0.,24.0,0.,24.0,0.,24.0,0.,24.0
1981-08-29 19:50:34.890 ,1,1,0.,24.0,0.,24.0,0.,24.0,0.,24.0
1981-08-29 19:50:58.890 ,1,0,0.,24.0,0.,24.0,0.,24.0,0.,24.0
1981-08-29 19:51:22.890 ,2,1,0.,24.0,0.,24.0,0.,24.0,0.,24.0
1981-08-29 19:51:46.890 ,2,0,0.,24.0,0.,24.0,1.,24.0,0.,24.0
1981-08-29 19:52:10.890 ,3,1,0.,24.0,0.,24.0,0.,24.0,0.,24.0
1981-08-29 19:52:34.890 ,4,1,0.,24.0,0.,24.0,1.,24.0,0.,24.0
1981-08-29 19:52:58.890 ,5,1,0.,24.0,0.,24.0,0.,24.0,0.,24.0
1981-08-29 19:53:22.890 ,6,1,0.,24.0,0.,24.0,1.,24.0,0.,24.0
1981-08-29 19:53:46.890 ,7,1,5.,24.0,1.,24.0,2.,24.0,0.,24.0
1981-08-29 19:54:10.890 ,7,1,19.,24.0,0.,24.0,1.,24.0,0.,24.0
1981-08-29 19:54:34.890 ,6,1,32.,24.0,0.,24.0,0.,24.0,0.,24.0
1981-08-29 19:54:58.890 ,5,1,0.,24.0,0.,24.0,0.,24.0,0.,24.0
1981-08-29 19:55:22.890 ,4,1,0.,24.0,0.,24.0,1.,24.0,0.,24.0
1981-08-29 19:55:46.890 ,3,1,0.,24.0,0.,24.0,0.,24.0,0.,24.0
1981-08-29 19:56:10.890 ,2,1,0.,24.0,1.,24.0,1.,24.0,0.,24.0
1981-08-29 19:56:34.890 ,1,1,0.,24.0,0.,24.0,0.,24.0,0.,24.0
1981-08-29 19:56:58.890 ,0,1,0.,24.0,0.,24.0,0.,24.0,0.,24.0
1981-08-29 19:57:22.890 ,0,1,0.,24.0,0.,24.0,0.,24.0,0.,24.0
1981-08-29 19:57:46.890 ,1,1,0.,24.0,0.,24.0,0.,24.0,0.,24.0
1981-08-29 19:58:10.890 ,2,1,0.,24.0,0.,24.0,0.,24.0,0.,24.0
1981-08-29 19:58:34.890 ,3,1,1.,24.0,0.,24.0,0.,24.0,0.,24.0
1981-08-29 19:58:58.890 ,3,0,0.,24.0,0.,24.0,0.,24.0,0.,24.0
1981-08-29 19:59:22.890 ,4,1,0.,24.0,0.,24.0,0.,24.0,0.,24.0
1981-08-29 19:59:46.890 ,4,0,0.,24.0,0.,24.0,1.,24.0,0.,24.0
1981-08-29 20:00:10.890 ,5,1,0.,24.0,0.,24.0,0.,24.0,0.,24.0
1981-08-29 20:00:34.890 ,5,0,0.,24.0,0.,24.0,1.,24.0,0.,24.0
1981-08-29 20:00:58.890 ,6,1,0.,24.0,0.,24.0,0.,24.0,0.,24.0
1981-08-29 20:01:22.890 ,6,0,0.,24.0,0.,24.0,2.,24.0,0.,24.0
1981-08-29 20:01:46.890 ,7,1,8.,24.0,0.,24.0,1.,24.0,0.,24.0
1981-08-29 20:02:10.890 ,7,0,27.,24.0,0.,24.0,0.,24.0,0.,24.0
1981-08-29 20:02:34.890 ,7,1,25.,24.0,0.,24.0,0.,24.0,0.,24.0
1981-08-29 20:02:58.890 ,7,0,35.,24.0,0.,24.0,0.,24.0,0.,24.0
1981-08-29 20:03:22.890 ,6,1,25.,24.0,0.,24.0,0.,24.0,0.,24.0
1981-08-29 20:03:46.890 ,6,0,1.,24.0,0.,24.0,0.,24.0,0.,24.0
1981-08-29 20:04:10.890 ,5,1,0.,24.0,0.,24.0,0.,24.0,0.,24.0
1981-08-29 20:04:34.890 ,5,0,0.,24.0,0.,24.0,0.,24.0,0.,24.0
1981-08-29 20:04:58.890 ,4,1,0.,24.0,0.,24.0,0.,24.0,0.,24.0
1981-08-29 20:05:22.890 ,4,0,0.,24.0,0.,24.0,0.,24.0,0.,24.0
1981-08-29 20:05:46.890 ,3,1,0.,24.0,0.,24.0,0.,24.0,0.,24.0
1981-08-29 20:06:10.890 ,3,0,0.,24.0,0.,24.0,2.,24.0,0.,24.0
1981-08-29 20:06:34.890 ,2,1,0.,24.0,0.,24.0,0.,24.0,0.,24.0
1981-08-29 20:06:58.890 ,2,0,0.,24.0,0.,24.0,0.,24.0,0.,24.0
1981-08-29 20:07:22.890 ,1,1,0.,24.0,0.,24.0,0.,24.0,0.,24.0
1981-08-29 20:07:46.890 ,1,0,0.,24.0,0.,24.0,2.,24.0,0.,24.0
1981-08-29 20:08:10.890 ,0,1,0.,24.0,0.,24.0,0.,24.0,0.,24.0
1981-08-29 20:08:34.890 ,0,0,0.,24.0,0.,24.0,1.,24.0,0.,24.0
1981-08-29 20:08:58.890 ,0,1,0.,24.0,0.,24.0,0.,24.0,0.,24.0
1981-08-29 20:09:22.890 ,0,0,0.,24.0,0.,24.0,0.,24.0,0.,24.0
1981-08-29 20:09:46.890 ,1,1,0.,24.0,0.,24.0,0.,24.0,0.,24.0
1981-08-29 20:10:10.890 ,1,0,0.,24.0,0.,24.0,0.,24.0,0.,24.0
1981-08-29 20:10:34.890 ,2,1,0.,24.0,0.,24.0,0.,24.0,0.,24.0
1981-08-29 20:10:58.890 ,2,0,0.,24.0,0.,24.0,0.,24.0,0.,24.0
1981-08-29 20:11:22.890 ,3,1,0.,24.0,0.,24.0,1.,24.0,0.,24.0
1981-08-29 20:11:46.890 ,4,1,0.,24.0,0.,24.0,0.,24.0,0.,24.0
1981-08-29 20:12:10.890 ,5,1,0.,24.0,1.,24.0,1.,24.0,0.,24.0
1981-08-29 20:12:34.890 ,6,1,0.,24.0,0.,24.0,0.,24.0,0.,24.0
1981-08-29 20:12:58.890 ,7,1,10.,24.0,1.,24.0,0.,24.0,0.,24.0
1981-08-29 20:13:22.890 ,7,1,35.,24.0,0.,24.0,1.,24.0,0.,24.0
1981-08-29 20:13:46.890 ,6,1,19.,24.0,0.,24.0,0.,24.0,0.,24.0
1981-08-29 20:14:10.890 ,5,1,0.,24.0,0.,24.0,0.,24.0,0.,24.0
1981-08-29 20:14:34.890 ,4,1,0.,24.0,0.,24.0,0.,24.0,0.,24.0
1981-08-29 20:14:58.890 ,3,1,0.,24.0,0.,24.0,0.,24.0,0.,24.0
1981-08-29 20:15:22.890 ,2,1,0.,24.0,0.,24.0,0.,24.0,0.,24.0
1981-08-29 20:15:46.890 ,1,1,0.,24.0,0.,24.0,0.,24.0,0.,24.0
1981-08-29 20:16:10.890 ,0,1,0.,24.0,0.,24.0,0.,24.0,0.,24.0
1981-08-29 20:16:34.890 ,0,1,0.,24.0,0.,24.0,0.,24.0,0.,24.0
1981-08-29 20:16:58.890 ,1,1,0.,24.0,0.,24.0,0.,24.0,0.,24.0
1981-08-29 20:17:22.890 ,2,1,0.,24.0,0.,24.0,0.,24.0,0.,24.0
1981-08-29 20:17:46.890 ,3,1,0.,24.0,0.,24.0,0.,24.0,0.,24.0
1981-08-29 20:18:10.890 ,3,0,0.,24.0,0.,24.0,2.,24.0,0.,24.0
1981-08-29 20:18:34.890 ,4,1,0.,24.0,0.,24.0,1.,24.0,0.,24.0
1981-08-29 20:18:58.890 ,4,0,0.,24.0,0.,24.0,1.,24.0,0.,24.0
1981-08-29 20:19:22.890 ,5,1,0.,24.0,0.,24.0,1.,24.0,0.,24.0
1981-08-29 20:19:46.890 ,5,0,0.,24.0,0.,24.0,0.,24.0,0.,24.0
1981-08-29 20:20:10.890 ,6,1,0.,24.0,0.,24.0,0.,24.0,0.,24.0
1981-08-29 20:20:34.890 ,6,0,0.,24.0,0.,24.0,1.,24.0,0.,24.0
1981-08-29 20:20:58.890 ,7,1,9.,24.0,0.,24.0,0.,24.0,0.,24.0
1981-08-29 20:21:22.890 ,7,0,28.,24.0,0.,24.0,0.,24.0,0.,24.0
1981-08-29 20:21:46.890 ,7,1,23.,24.0,0.,24.0,0.,24.0,0.,24.0
1981-08-29 20:22:10.890 ,7,0,31.,24.0,0.,24.0,1.,24.0,0.,24.0
1981-08-29 20:22:34.890 ,6,1,20.,24.0,0.,24.0,0.,24.0,0.,24.0
1981-08-29 20:22:58.890 ,6,0,0.,24.0,0.,24.0,2.,24.0,0.,24.0
1981-08-29 20:23:22.890 ,5,1,0.,24.0,0.,24.0,0.,24.0,0.,24.0
1981-08-29 20:23:46.890 ,5,0,0.,24.0,0.,24.0,1.,24.0,0.,24.0
1981-08-29 20:24:10.890 ,4,1,0.,24.0,0.,24.0,1.,24.0,0.,24.0
1981-08-29 20:24:34.890 ,4,0,0.,24.0,0.,24.0,2.,24.0,0.,24.0
1981-08-29 20:24:58.890 ,3,1,0.,24.0,0.,24.0,0.,24.0,0.,24.0
1981-08-29 20:25:22.890 ,3,0,0.,24.0,0.,24.0,2.,24.0,0.,24.0
1981-08-29 20:25:46.890 ,2,1,0.,24.0,0.,24.0,0.,24.0,0.,24.0
1981-08-29 20:26:10.890 ,2,0,0.,24.0,0.,24.0,1.,24.0,0.,24.0
1981-08-29 20:26:34.890 ,1,1,1.,24.0,0.,24.0,1.,24.0,0.,24.0
1981-08-29 20:26:58.890 ,1,0,0.,24.0,0.,24.0,0.,24.0,0.,24.0
1981-08-29 20:27:22.890 ,0,1,0.,24.0,0.,24.0,0.,24.0,0.,24.0
1981-08-29 20:27:46.890 ,0,0,0.,24.0,0.,24.0,2.,24.0,0.,24.0
1981-08-29 20:28:10.890 ,0,1,0.,24.0,0.,24.0,1.,24.0,0.,24.0
1981-08-29 20:28:34.890 ,0,0,0.,24.0,0.,24.0,1.,24.0,0.,24.0
1981-08-29 20:28:58.890 ,1,1,0.,24.0,0.,24.0,0.,24.0,0.,24.0
1981-08-29 20:29:22.890 ,1,0,0.,24.0,0.,24.0,1.,24.0,0.,24.0
1981-08-29 20:29:46.890 ,2,1,0.,24.0,0.,24.0,2.,24.0,0.,24.0
1981-08-29 20:30:10.890 ,2,0,0.,24.0,0.,24.0,0.,24.0,0.,24.0
1981-08-29 20:30:34.890 ,3,1,0.,24.0,0.,24.0,0.,24.0,0.,24.0
1981-08-29 20:30:58.890 ,4,1,0.,24.0,0.,24.0,0.,24.0,0.,24.0
1981-08-29 20:31:22.890 ,5,1,0.,24.0,0.,24.0,0.,24.0,0.,24.0
1981-08-29 20:31:46.890 ,6,1,0.,24.0,0.,24.0,0.,24.0,0.,24.0
1981-08-29 20:32:10.890 ,7,1,3.,24.0,0.,24.0,0.,24.0,0.,24.0
1981-08-29 20:32:34.890 ,7,1,28.,24.0,0.,24.0,0.,24.0,0.,24.0
1981-08-29 20:32:58.890 ,6,1,17.,24.0,0.,24.0,1.,24.0,0.,24.0
1981-08-29 20:33:22.890 ,5,1,0.,24.0,0.,24.0,1.,24.0,0.,24.0
1981-08-29 20:33:46.890 ,4,1,0.,24.0,0.,24.0,1.,24.0,0.,24.0
1981-08-29 20:34:10.890 ,3,1,0.,24.0,0.,24.0,0.,24.0,0.,24.0